This demonstration page uses our WeatherBlox Daily Observations layout. Learn more.

Left ArrowRight Arrow

Hourly Observations for October 23, 2021

Temp ( °F °C ) Dew Point ( °F °C ) Humidity (%) Winds ( mph kmh ) Pressure ( in mb ) Visibility ( mi km ) Precip ( " mm )
6:30 am 06:30 Mostly Cloudy with Mist and Fog 41 5 39 4 93 93 N N/A 30.07 1018 1 1 N/A
6:45 am 06:45 Partly Cloudy with Mist and Fog 41 5 39 4 93 93 N N/A 30.08 1019 5 8 N/A
7:45 am 07:45 Mostly Cloudy with Mist and Fog 45 7 43 6 93 93 N N/A 30.08 1019 5 8 N/A
8:20 am 08:20 Cloudy with Mist and Fog 46 8 45 7 93 93 N N/A 30.07 1018 2 3 N/A
8:45 am 08:45 Mostly Cloudy with Mist and Fog 46 8 45 7 93 93 N N/A 30.08 1019 2 2 N/A
8:52 am 08:52 Mostly Cloudy with Mist and Fog 46 8 45 7 93 93 N N/A 30.08 1019 2 3 N/A
9:45 am 09:45 Mostly Cloudy with Mist and Fog 46 8 46 8 100 100 N N/A 30.09 1019 4 6 N/A
10:29 am 10:29 Partly Cloudy 50 10 45 7 82 82 N N/A 30.09 1019 8 13 N/A
10:45 am 10:45 Mostly Cloudy 50 10 46 8 88 88 N N/A 30.10 1019 10 16 N/A
11:45 am 11:45 Mostly Cloudy 54 12 46 8 77 77 S 6 9 30.08 1019 10 16 N/A
12:45 pm 12:45 Cloudy 54 12 45 7 72 72 S 3 6 30.08 1019 10 16 N/A
1:47 pm 13:47 Cloudy 55 13 45 7 67 67 SSW 7 11 30.05 1018 10 16 N/A
2:45 pm 14:45 Cloudy 57 14 45 7 63 63 SE 5 7 30.02 1017 10 16 N/A
3:45 pm 15:45 Cloudy 57 14 43 6 59 59 N N/A 30.02 1017 10 16 N/A
4:45 pm 16:45 Cloudy 57 14 43 6 59 59 SSW 3 6 30.01 1016 10 16 N/A
5:45 pm 17:45 Cloudy 57 14 45 7 63 63 N N/A 30.00 1016 10 16 N/A
6:45 pm 18:45 Cloudy 55 13 45 7 67 67 NNE 7 11 30.00 1016 10 16 N/A
7:45 pm 19:45 Cloudy 54 12 45 7 72 72 NNE 6 9 30.01 1016 10 16 N/A
8:45 pm 20:45 Cloudy 54 12 46 8 77 77 E 3 6 30.02 1017 10 16 N/A
9:15 pm 21:15 Cloudy 52 11 48 9 88 88 N N/A 30.03 1017 7 11 N/A
9:45 pm 21:45 Cloudy with Mist and Fog 50 10 48 9 94 94 N N/A 30.03 1017 3 5 N/A

Powered by AerisWeather